Location: McFarlands Corners
(41.4117°N, 81.3382°W)
Time: 02:20:52
(UTC+00:00)

Transit 4A - Pass Details

Date: 17 February 2026
Orbit: 863 x 978 km, 66.8° (Epoch: 13 March)

Event Time Altitude Azimuth Distance (km) Brightness Sun altitude
Rises 10:41:37 0° 249° (WSW) 3,459 - -18.6°
Reaches altitude 10° 10:44:35 10° 264° (W) 2,538 - -18.1°
Exits shadow 10:48:16 23° 302° (WNW) 1,822 8.9 -17.4°
Maximum altitude 10:49:13 24° 316° (NW) 1,789 9.0 -17.2°
Drops below altitude 10° 10:53:58 10° 9° (N) 2,605 10.3 -16.3°
Sets 10:57:05 0° 23° (NNE) 3,572 11.2 -15.7°
